Location: Dimsdale
(55.1333°N, 118.9833°W)
Time: 00:08:53
(UTC+00:00)

MOZHAYETS 4 - Pass Details

Date: 06 December 2023
Orbit: 654 x 672 km, 98.3° (Epoch: 26 February)

Event Time Altitude Azimuth Distance (km) Brightness Sun altitude
Rises 00:31:57 0° 14° (NNE) 3,037 10.7 -8.3°
Reaches altitude 10° 00:34:12 10° 11° (N) 2,120 9.9 -8.6°
Maximum altitude 00:38:47 65° 291° (WNW) 748 8.2 -9.1°
Drops below altitude 10° 00:43:21 10° 210° (SSW) 2,108 11.2 -9.7°
Sets 00:45:35 0° 207° (SSW) 3,018 12.0 -10.0°
